Voltar ao catálogo

STARLINK-2568

AtivoComunicaçõesVLEO
NORAD 48406·PAYLOAD·🇺🇸 United States

Lançado May 4, 2021 de Cape Canaveral Space Force Station

Loading…

Próximas Passagens (próximas 24 horas)

TLE

AtualizadoSource: CelesTrak SupGP

Época: Sep 14, 2026, 14:10 UTC

1 48406C 21038BF  26257.59076389  .00060636  00000+0  18280-2 0  2573
2 48406  53.1577 176.5369 0002819 101.8282 304.0693 15.33721129    11

Acompanhe STARLINK-2568 em tempo real com AllMySat

Download on the App Store